TimeCST,TemperatureF,Dew PointF,Humidity,Sea Level PressureIn,VisibilityMPH,Wind Direction,Wind SpeedMPH,Gust SpeedMPH,PrecipitationIn,Events,Conditions,WindDirDegrees,DateUTC
12:56 AM,-6.0,-16.1,62,30.45,10.0,NNW,10.4,-,0.00,,Clear,330,2014-01-23 06:56:00
1:56 AM,-7.1,-16.1,65,30.49,10.0,NW,11.5,-,N/A,,Clear,310,2014-01-23 07:56:00
2:56 AM,-8.0,-17.0,65,30.52,10.0,NW,11.5,-,0.00,,Clear,310,2014-01-23 08:56:00
3:56 AM,-9.0,-17.0,68,30.56,10.0,NW,10.4,-,N/A,,Clear,310,2014-01-23 09:56:00
4:56 AM,-9.0,-18.0,65,30.59,10.0,NW,9.2,-,N/A,,Clear,310,2014-01-23 10:56:00
5:56 AM,-11.0,-18.0,71,30.63,10.0,WNW,6.9,-,N/A,,Clear,300,2014-01-23 11:56:00
6:56 AM,-11.9,-18.9,71,30.66,10.0,West,5.8,-,N/A,,Clear,280,2014-01-23 12:56:00
7:56 AM,-15.0,-20.0,78,30.69,10.0,West,4.6,-,N/A,,Clear,280,2014-01-23 13:56:00
8:56 AM,-11.9,-20.0,67,30.70,10.0,NW,9.2,-,N/A,,Clear,310,2014-01-23 14:56:00
9:56 AM,-9.9,-18.9,65,30.71,10.0,WNW,10.4,-,N/A,,Clear,300,2014-01-23 15:56:00
10:56 AM,-9.0,-18.0,65,30.73,10.0,WNW,6.9,-,0.00,,Clear,290,2014-01-23 16:56:00
11:56 AM,-9.0,-18.0,65,30.72,10.0,West,10.4,-,N/A,,Clear,260,2014-01-23 17:56:00
12:56 PM,-8.0,-18.0,61,30.71,10.0,West,11.5,-,N/A,,Clear,270,2014-01-23 18:56:00
1:56 PM,-7.1,-18.0,59,30.69,10.0,WSW,11.5,-,N/A,,Clear,250,2014-01-23 19:56:00
2:56 PM,-6.0,-18.0,56,30.68,10.0,West,10.4,-,0.00,,Clear,270,2014-01-23 20:56:00
3:56 PM,-6.0,-18.0,56,30.67,10.0,West,9.2,-,0.00,,Clear,260,2014-01-23 21:56:00
4:56 PM,-8.0,-18.9,59,30.66,10.0,West,6.9,-,0.00,,Clear,260,2014-01-23 22:56:00
5:56 PM,-9.0,-18.9,62,30.65,10.0,WSW,5.8,-,0.00,,Clear,240,2014-01-23 23:56:00
6:56 PM,-9.9,-18.9,65,30.61,10.0,SW,8.1,-,N/A,,Clear,230,2014-01-24 00:56:00
7:56 PM,-11.0,-18.9,68,30.59,10.0,SW,8.1,-,N/A,,Clear,230,2014-01-24 01:56:00
8:56 PM,-11.0,-18.0,71,30.53,10.0,SSW,5.8,-,N/A,,Clear,210,2014-01-24 02:56:00
9:56 PM,-11.0,-18.0,71,30.48,10.0,SSW,9.2,-,N/A,,Clear,210,2014-01-24 03:56:00
10:56 PM,-11.0,-17.0,75,30.41,10.0,SSW,8.1,-,N/A,,Clear,200,2014-01-24 04:56:00
11:56 PM,-11.0,-15.0,83,30.36,10.0,South,5.8,-,0.00,,Clear,190,2014-01-24 05:56:00